sim
Sign-in with your pilot id or email,
or register
Callsign
Passwort

Schedule Details

Flight Number: RYR6302 (3)
Departure: Barcelona El Prat Airport (LEBL) at 06:20
Arrival: Fuerteventura Airport (GCFV) at 09:35
Route: Ryanair Passenger Schedule. Enter filed route here before submitting Pirep.

Weather Information
Getting current METAR information for LEBL 212200Z 05016KT CAVOK 17/07 Q1007 NOSIG
Getting current METAR information for GCFV 212200Z AUTO 34012KT 9999 BKN026 19/14 Q1015

Schedule Frequency

Route Map